| time (UTC) | temp C | wind direction | speed KPH | gust KPH | rain 1hr cm | rain 24hr cm | rain mn cm | humidity % | barometer mb |
| 20260507161035 | 11 | 186 | 1.6 | 12.9 | 0.00 | 1.47 | 0.00 | 69 | 1006.7 |
| 20260507160535 | 10 | 242 | 3.2 | 12.9 | 0.00 | 1.47 | 0.00 | 60 | 1006.7 |
| 20260507160045 | 10 | 40 | 1.6 | 14.5 | 0.00 | 1.47 | 0.00 | 61 | 1006.7 |
| 20260507155535 | 10 | 0 | 4.8 | 14.5 | 0.00 | 1.63 | 0.00 | 68 | 1006.8 |
| 20260507155035 | 10 | 0 | 1.6 | 12.9 | 0.00 | 1.63 | 0.00 | 59 | 1006.9 |
| 20260507154545 | 10 | 43 | 3.2 | 17.7 | 0.00 | 1.63 | 0.00 | 62 | 1007.0 |
| 20260507154035 | 9 | 243 | 4.8 | 17.7 | 0.00 | 1.63 | 0.00 | 61 | 1007.0 |
| 20260507153535 | 9 | 346 | 4.8 | 19.3 | 0.00 | 1.63 | 0.00 | 59 | 1007.1 |
| 20260507153045 | 9 | 338 | 6.4 | 19.3 | 0.00 | 1.63 | 0.00 | 61 | 1007.0 |
| 20260507152536 | 9 | 245 | 3.2 | 14.5 | 0.00 | 1.63 | 0.00 | 72 | 1007.0 |
| 20260507152036 | 8 | 196 | 1.6 | 16.1 | 0.00 | 1.63 | 0.00 | 71 | 1007.1 |
| 20260507151548 | 8 | 303 | 3.2 | 16.1 | 0.00 | 1.63 | 0.00 | 70 | 1007.1 |
| 20260507151035 | 8 | 138 | 3.2 | 12.9 | 0.00 | 1.63 | 0.00 | 76 | 1007.1 |
| 20260507150538 | 10 | 162 | 3.2 | 9.7 | 0.00 | 1.63 | 0.00 | 81 | 1007.1 |
| 20260507150047 | 9 | 281 | 1.6 | 9.7 | 0.00 | 1.63 | 0.00 | 77 | 1006.9 |
| 20260507145536 | 8 | 0 | 3.2 | 8.0 | 0.00 | 1.83 | 0.00 | 78 | 1006.9 |
| 20260507145035 | 8 | 217 | 1.6 | 6.4 | 0.00 | 1.83 | 0.00 | 80 | 1006.9 |
| 20260507144548 | 8 | 337 | 0.0 | 9.7 | 0.00 | 1.83 | 0.00 | 85 | 1007.0 |
| 20260507144036 | 8 | 5 | 1.6 | 9.7 | 0.00 | 1.83 | 0.00 | 79 | 1006.9 |
| 20260507143535 | 8 | 175 | 1.6 | 8.0 | 0.00 | 1.83 | 0.00 | 84 | 1007.0 |
| 20260507143049 | 8 | 250 | 0.0 | 8.0 | 0.00 | 1.83 | 0.00 | 82 | 1007.0 |
| 20260507142535 | 7 | 189 | 0.0 | 6.4 | 0.00 | 1.83 | 0.00 | 84 | 1007.2 |
| 20260507142035 | 8 | 0 | 0.0 | 6.4 | 0.00 | 1.83 | 0.00 | 84 | 1007.2 |
| 20260507141556 | 7 | 355 | 0.0 | 6.4 | 0.00 | 1.83 | 0.00 | 89 | 1007.2 |
| 20260507141035 | 7 | 129 | 0.0 | 6.4 | 0.00 | 1.83 | 0.00 | 91 | 1007.2 |
| 20260507140535 | 6 | 0 | 0.0 | 3.2 | 0.00 | 1.83 | 0.00 | 93 | 1007.3 |
| 20260507140056 | 6 | 114 | 0.0 | 4.8 | 0.00 | 1.83 | 0.00 | 94 | 1007.2 |
| 20260507135540 | 6 | 148 | 0.0 | 6.4 | 0.00 | 2.03 | 0.00 | 95 | 1007.1 |
| 20260507135035 | 6 | 175 | 0.0 | 6.4 | 0.00 | 2.03 | 0.00 | 95 | 1007.3 |
| 20260507134549 | 6 | 0 | 0.0 | 1.6 | 0.00 | 2.03 | 0.00 | 95 | 1007.3 |
| 20260507134034 | 6 | 0 | 0.0 | 1.6 | 0.00 | 2.03 | 0.00 | 95 | 1007.3 |
| 20260507133535 | 6 | 0 | 0.0 | 3.2 | 0.00 | 2.03 | 0.00 | 95 | 1007.3 |
| 20260507133048 | 6 | 0 | 0.0 | 3.2 | 0.00 | 2.03 | 0.00 | 96 | 1007.3 |
| 20260507132536 | 5 | 0 | 0.0 | 0.0 | 0.00 | 2.03 | 0.00 | 95 | 1007.2 |
| 20260507132035 | 5 | 0 | 0.0 | 0.0 | 0.00 | 2.03 | 0.00 | 95 | 1007.3 |
| 20260507131548 | 5 | 0 | 0.0 | 4.8 | 0.00 | 2.03 | 0.00 | 95 | 1007.3 |
| 20260507131037 | 5 | 0 | 0.0 | 4.8 | 0.00 | 2.03 | 0.00 | 95 | 1007.3 |
| 20260507130536 | 5 | 0 | 0.0 | 3.2 | 0.00 | 2.03 | 0.00 | 95 | 1007.3 |
| 20260507130052 | 5 | 0 | 0.0 | 0.0 | 0.00 | 2.03 | 0.00 | 95 | 1007.4 |
| 20260507125535 | 6 | 0 | 0.0 | 0.0 | 0.00 | 2.08 | 0.00 | 96 | 1007.3 |
| 20260507125039 | 6 | 0 | 0.0 | 0.0 | 0.00 | 2.08 | 0.00 | 96 | 1007.3 |
| 20260507124553 | 5 | 0 | 0.0 | 0.0 | 0.00 | 2.08 | 0.00 | 96 | 1007.3 |
| 20260507124036 | 5 | 0 | 0.0 | 1.6 | 0.00 | 2.08 | 0.00 | 96 | 1007.3 |
| 20260507123535 | 5 | 0 | 0.0 | 1.6 | 0.00 | 2.08 | 0.00 | 96 | 1007.2 |
| 20260507123046 | 5 | 0 | 0.0 | 1.6 | 0.00 | 2.08 | 0.00 | 96 | 1007.3 |
| 20260507122534 | 5 | 0 | 0.0 | 0.0 | 0.00 | 2.08 | 0.00 | 96 | 1007.3 |
| 20260507122036 | 5 | 0 | 0.0 | 0.0 | 0.00 | 2.08 | 0.00 | 96 | 1007.3 |
| 20260507121548 | 5 | 0 | 0.0 | 0.0 | 0.00 | 2.08 | 0.00 | 96 | 1007.3 |
| 20260507121035 | 5 | 0 | 0.0 | 0.0 | 0.00 | 2.08 | 0.00 | 96 | 1007.2 |
| 20260507120534 | 5 | 0 | 0.0 | 0.0 | 0.00 | 2.08 | 0.00 | 96 | 1007.2 |
| 20260507120049 | 5 | 0 | 0.0 | 0.0 | 0.00 | 2.08 | 0.00 | 96 | 1007.1 |
| 20260507115537 | 5 | 0 | 0.0 | 0.0 | 0.00 | 2.08 | 0.00 | 96 | 1007.2 |
| 20260507115036 | 5 | 0 | 0.0 | 1.6 | 0.00 | 2.08 | 0.00 | 96 | 1007.2 |
| 20260507114545 | 5 | 0 | 0.0 | 1.6 | 0.00 | 2.08 | 0.00 | 96 | 1007.2 |
| 20260507114039 | 5 | 0 | 0.0 | 1.6 | 0.00 | 2.08 | 0.00 | 96 | 1007.1 |
| 20260507113538 | 5 | 0 | 0.0 | 1.6 | 0.00 | 2.08 | 0.00 | 96 | 1007.2 |
| 20260507113048 | 5 | 0 | 0.0 | 0.0 | 0.00 | 2.08 | 0.00 | 96 | 1007.3 |
| 20260507112538 | 5 | 0 | 0.0 | 0.0 | 0.00 | 2.08 | 0.00 | 96 | 1007.2 |
| 20260507112041 | 4 | 0 | 0.0 | 0.0 | 0.00 | 2.08 | 0.00 | 96 | 1007.1 |
| 20260507111550 | 4 | 0 | 0.0 | 0.0 | 0.00 | 2.08 | 0.00 | 96 | 1007.0 |
| 20260507111037 | 4 | 0 | 0.0 | 0.0 | 0.00 | 2.08 | 0.00 | 96 | 1007.1 |
| 20260507110537 | 4 | 0 | 0.0 | 0.0 | 0.00 | 2.08 | 0.00 | 96 | 1007.1 |
| 20260507110050 | 4 | 0 | 0.0 | 0.0 | 0.00 | 2.08 | 0.00 | 96 | 1007.0 |
| 20260507105536 | 4 | 0 | 0.0 | 0.0 | 0.00 | 2.08 | 0.00 | 96 | 1007.0 |
| 20260507105037 | 4 | 0 | 0.0 | 0.0 | 0.00 | 2.08 | 0.00 | 96 | 1007.1 |
| 20260507104547 | 3 | 0 | 0.0 | 0.0 | 0.00 | 2.08 | 0.00 | 96 | 1007.2 |
| 20260507104036 | 4 | 0 | 0.0 | 0.0 | 0.00 | 2.08 | 0.00 | 96 | 1007.3 |
| 20260507103537 | 3 | 0 | 0.0 | 0.0 | 0.00 | 2.08 | 0.00 | 96 | 1007.2 |
| 20260507103045 | 3 | 0 | 0.0 | 0.0 | 0.00 | 2.08 | 0.00 | 96 | 1007.1 |
| 20260507102536 | 3 | 0 | 0.0 | 1.6 | 0.00 | 2.08 | 0.00 | 96 | 1007.1 |
| 20260507102038 | 3 | 0 | 0.0 | 1.6 | 0.00 | 2.08 | 0.00 | 96 | 1007.2 |
| 20260507101600 | 3 | 0 | 0.0 | 1.6 | 0.00 | 2.08 | 0.00 | 96 | 1007.1 |
| 20260507101037 | 3 | 0 | 0.0 | 0.0 | 0.00 | 2.08 | 0.00 | 96 | 1007.1 |
| 20260507100537 | 3 | 0 | 0.0 | 0.0 | 0.00 | 2.08 | 0.00 | 96 | 1007.0 |
| 20260507100050 | 3 | 0 | 0.0 | 0.0 | 0.00 | 2.08 | 0.00 | 96 | 1006.8 |
| 20260507095537 | 3 | 0 | 0.0 | 0.0 | 0.00 | 2.08 | 0.00 | 96 | 1006.8 |
| 20260507095036 | 3 | 0 | 0.0 | 1.6 | 0.00 | 2.08 | 0.00 | 96 | 1006.9 |
| 20260507094554 | 3 | 0 | 0.0 | 1.6 | 0.00 | 2.08 | 0.00 | 96 | 1006.9 |
| 20260507094041 | 3 | 0 | 0.0 | 1.6 | 0.00 | 2.08 | 0.00 | 96 | 1006.8 |
| 20260507093537 | 2 | 0 | 0.0 | 0.0 | 0.00 | 2.08 | 0.00 | 96 | 1006.8 |
| 20260507093044 | 2 | 0 | 0.0 | 0.0 | 0.00 | 2.08 | 0.00 | 96 | 1006.7 |
| 20260507092539 | 2 | 0 | 0.0 | 0.0 | 0.00 | 2.08 | 0.00 | 96 | 1006.7 |
| 20260507092036 | 2 | 0 | 0.0 | 0.0 | 0.00 | 2.08 | 0.00 | 96 | 1006.6 |
| 20260507091600 | 3 | 0 | 0.0 | 0.0 | 0.00 | 2.08 | 0.00 | 96 | 1006.5 |
| 20260507091037 | 3 | 0 | 0.0 | 0.0 | 0.00 | 2.08 | 0.00 | 96 | 1006.6 |
| 20260507090537 | 3 | 0 | 0.0 | 0.0 | 0.00 | 2.08 | 0.00 | 96 | 1006.6 |
| 20260507090107 | 3 | 0 | 0.0 | 0.0 | 0.00 | 2.08 | 0.00 | 96 | 1006.7 |
| 20260507085538 | 3 | 0 | 0.0 | 0.0 | 0.00 | 2.11 | 0.00 | 96 | 1006.8 |
| 20260507085036 | 3 | 0 | 0.0 | 0.0 | 0.00 | 2.11 | 0.00 | 96 | 1006.8 |
| 20260507084547 | 3 | 0 | 0.0 | 0.0 | 0.00 | 2.11 | 0.00 | 96 | 1006.9 |
| 20260507084036 | 3 | 0 | 0.0 | 0.0 | 0.00 | 2.11 | 0.00 | 96 | 1007.0 |
| 20260507083540 | 3 | 0 | 0.0 | 3.2 | 0.00 | 2.11 | 0.00 | 96 | 1006.9 |
| 20260507083059 | 3 | 0 | 0.0 | 3.2 | 0.00 | 2.11 | 0.00 | 96 | 1006.9 |
| 20260507082542 | 3 | 203 | 0.0 | 1.6 | 0.00 | 2.11 | 0.00 | 96 | 1006.9 |
| 20260507082038 | 3 | 0 | 0.0 | 0.0 | 0.00 | 2.11 | 0.00 | 96 | 1006.8 |
| 20260507081552 | 3 | 0 | 0.0 | 0.0 | 0.00 | 2.11 | 0.00 | 96 | 1006.7 |
| 20260507081037 | 3 | 0 | 0.0 | 0.0 | 0.00 | 2.11 | 0.00 | 96 | 1006.6 |
| 20260507080537 | 3 | 0 | 0.0 | 0.0 | 0.00 | 2.11 | 0.00 | 96 | 1006.6 |
| 20260507080049 | 3 | 0 | 0.0 | 0.0 | 0.00 | 2.11 | 0.00 | 96 | 1006.6 |
| 20260507075539 | 3 | 0 | 0.0 | 0.0 | 0.00 | 2.21 | 0.00 | 96 | 1006.6 |
| 20260507075037 | 4 | 0 | 0.0 | 0.0 | 0.00 | 2.21 | 0.00 | 96 | 1006.6 |
| 20260507074553 | 4 | 0 | 0.0 | 0.0 | 0.00 | 2.21 | 0.00 | 96 | 1006.7 |
| 20260507074036 | 4 | 0 | 0.0 | 0.0 | 0.00 | 2.21 | 0.00 | 96 | 1006.7 |
| 20260507073536 | 4 | 0 | 0.0 | 0.0 | 0.00 | 2.21 | 0.00 | 96 | 1006.5 |
| 20260507073058 | 4 | 0 | 0.0 | 0.0 | 0.00 | 2.21 | 0.00 | 96 | 1006.6 |
| 20260507072537 | 4 | 0 | 0.0 | 0.0 | 0.00 | 2.21 | 0.00 | 96 | 1006.5 |
| 20260507072037 | 4 | 0 | 0.0 | 0.0 | 0.00 | 2.21 | 0.00 | 96 | 1006.5 |
| 20260507071549 | 4 | 0 | 0.0 | 0.0 | 0.00 | 2.21 | 0.00 | 96 | 1006.6 |
| 20260507071036 | 4 | 0 | 0.0 | 0.0 | 0.00 | 2.21 | 0.00 | 96 | 1006.7 |
| 20260507070536 | 4 | 0 | 0.0 | 0.0 | 0.00 | 2.21 | 0.00 | 96 | 1006.6 |
| 20260507070119 | 4 | 0 | 0.0 | 0.0 | 0.00 | 2.21 | 0.00 | 96 | 1006.6 |
| 20260507065536 | 4 | 0 | 0.0 | 0.0 | 0.00 | 2.26 | 0.00 | 96 | 1006.7 |
| 20260507065038 | 4 | 0 | 0.0 | 0.0 | 0.00 | 2.26 | 0.00 | 96 | 1006.7 |
| 20260507064551 | 4 | 0 | 0.0 | 0.0 | 0.00 | 2.26 | 0.00 | 96 | 1006.6 |
| 20260507064036 | 3 | 0 | 0.0 | 0.0 | 0.00 | 2.26 | 0.00 | 96 | 1006.5 |
| 20260507063536 | 4 | 0 | 0.0 | 0.0 | 0.00 | 2.26 | 0.00 | 96 | 1006.6 |
| 20260507063102 | 4 | 0 | 0.0 | 0.0 | 0.00 | 2.26 | 0.00 | 96 | 1006.7 |
| 20260507062537 | 4 | 0 | 0.0 | 0.0 | 0.00 | 2.26 | 0.00 | 96 | 1006.5 |
| 20260507062038 | 4 | 0 | 0.0 | 0.0 | 0.00 | 2.26 | 0.00 | 96 | 1006.6 |
| 20260507061546 | 4 | 0 | 0.0 | 0.0 | 0.00 | 2.26 | 0.00 | 96 | 1006.8 |
| 20260507061036 | 4 | 0 | 0.0 | 0.0 | 0.00 | 2.26 | 0.00 | 96 | 1006.8 |
| 20260507060536 | 4 | 0 | 0.0 | 0.0 | 0.00 | 2.26 | 0.00 | 96 | 1006.9 |
| 20260507060050 | 4 | 0 | 0.0 | 0.0 | 0.00 | 2.26 | 0.00 | 96 | 1007.0 |
| 20260507055537 | 3 | 0 | 0.0 | 0.0 | 0.00 | 2.46 | 0.00 | 96 | 1006.9 |
| 20260507055037 | 3 | 0 | 0.0 | 0.0 | 0.00 | 2.46 | 0.00 | 96 | 1006.5 |
| 20260507054554 | 4 | 0 | 0.0 | 0.0 | 0.00 | 2.46 | 0.00 | 96 | 1006.5 |
| 20260507054037 | 3 | 0 | 0.0 | 0.0 | 0.00 | 2.46 | 0.00 | 96 | 1006.6 |
| 20260507053536 | 4 | 0 | 0.0 | 0.0 | 0.00 | 2.46 | 0.00 | 95 | 1007.0 |
| 20260507053045 | 4 | 0 | 0.0 | 0.0 | 0.00 | 2.46 | 0.00 | 96 | 1006.9 |
| 20260507052537 | 4 | 0 | 0.0 | 0.0 | 0.00 | 2.46 | 0.00 | 96 | 1007.0 |
| 20260507052037 | 4 | 0 | 0.0 | 0.0 | 0.00 | 2.46 | 0.00 | 96 | 1006.8 |
| 20260507051551 | 4 | 0 | 0.0 | 0.0 | 0.00 | 2.46 | 0.00 | 96 | 1006.9 |
| 20260507051036 | 5 | 0 | 0.0 | 0.0 | 0.00 | 2.46 | 0.00 | 95 | 1007.0 |
| 20260507050536 | 5 | 0 | 0.0 | 0.0 | 0.00 | 2.46 | 0.00 | 96 | 1007.0 |
| 20260507050050 | 5 | 0 | 0.0 | 0.0 | 0.00 | 2.46 | 0.00 | 96 | 1007.0 |
| 20260507045537 | 5 | 0 | 0.0 | 0.0 | 0.00 | 2.92 | 0.00 | 95 | 1007.1 |
| 20260507045039 | 5 | 0 | 0.0 | 1.6 | 0.00 | 2.92 | 0.00 | 95 | 1007.1 |
| 20260507044549 | 5 | 0 | 0.0 | 3.2 | 0.00 | 2.92 | 0.00 | 96 | 1007.1 |
| 20260507044036 | 5 | 0 | 0.0 | 3.2 | 0.00 | 2.92 | 0.00 | 96 | 1007.1 |
| 20260507043536 | 5 | 0 | 0.0 | 1.6 | 0.00 | 2.92 | 0.00 | 96 | 1007.1 |
| 20260507043045 | 5 | 0 | 0.0 | 1.6 | 0.00 | 2.92 | 0.00 | 96 | 1007.0 |
| 20260507042537 | 5 | 0 | 0.0 | 1.6 | 0.00 | 2.92 | 0.00 | 96 | 1006.9 |
| 20260507042036 | 5 | 0 | 0.0 | 3.2 | 0.00 | 2.92 | 0.00 | 96 | 1006.8 |
| 20260507041545 | 5 | 0 | 0.0 | 4.8 | 0.00 | 2.92 | 0.00 | 96 | 1007.0 |
| 20260507041036 | 5 | 0 | 0.0 | 4.8 | 0.00 | 2.92 | 0.00 | 96 | 1007.1 |
| 20260507040538 | 5 | 0 | 0.0 | 3.2 | 0.00 | 2.92 | 0.00 | 96 | 1007.3 |
| 20260507040050 | 5 | 0 | 0.0 | 1.6 | 0.00 | 2.92 | 0.00 | 96 | 1007.4 |
| 20260507035537 | 5 | 0 | 0.0 | 0.0 | 0.00 | 3.05 | 2.92 | 96 | 1007.4 |
| 20260507035037 | 5 | 0 | 0.0 | 0.0 | 0.00 | 3.05 | 2.92 | 96 | 1007.4 |
| 20260507034547 | 5 | 0 | 0.0 | 0.0 | 0.00 | 3.05 | 2.92 | 96 | 1007.4 |
| 20260507034037 | 5 | 0 | 0.0 | 0.0 | 0.03 | 3.05 | 2.92 | 96 | 1007.4 |
| 20260507033542 | 5 | 0 | 0.0 | 0.0 | 0.03 | 3.05 | 2.92 | 96 | 1007.3 |
| 20260507033049 | 5 | 0 | 0.0 | 0.0 | 0.03 | 3.05 | 2.92 | 96 | 1007.2 |
| 20260507032537 | 5 | 0 | 0.0 | 0.0 | 0.03 | 3.05 | 2.92 | 96 | 1007.1 |
| 20260507032036 | 5 | 0 | 0.0 | 0.0 | 0.03 | 3.05 | 2.92 | 96 | 1007.0 |
| 20260507031548 | 5 | 0 | 0.0 | 0.0 | 0.03 | 3.05 | 2.92 | 96 | 1007.2 |
| 20260507031041 | 5 | 0 | 0.0 | 0.0 | 0.05 | 3.05 | 2.92 | 96 | 1007.3 |
| 20260507030537 | 5 | 0 | 0.0 | 0.0 | 0.05 | 3.05 | 2.92 | 96 | 1007.3 |
| 20260507030057 | 5 | 0 | 0.0 | 0.0 | 0.05 | 3.05 | 2.92 | 95 | 1007.3 |
| 20260507025536 | 5 | 0 | 0.0 | 0.0 | 0.08 | 3.05 | 2.92 | 95 | 1007.4 |
| 20260507025036 | 5 | 0 | 0.0 | 0.0 | 0.10 | 3.05 | 2.92 | 95 | 1007.3 |
| 20260507024545 | 5 | 0 | 0.0 | 0.0 | 0.10 | 3.05 | 2.92 | 95 | 1007.1 |
| 20260507024037 | 5 | 0 | 0.0 | 0.0 | 0.08 | 3.02 | 2.90 | 95 | 1007.3 |
| 20260507023539 | 6 | 0 | 0.0 | 0.0 | 0.08 | 3.02 | 2.90 | 95 | 1007.5 |
| 20260507023047 | 6 | 0 | 0.0 | 0.0 | 0.08 | 3.02 | 2.90 | 95 | 1007.7 |
| 20260507022536 | 6 | 0 | 0.0 | 0.0 | 0.08 | 3.02 | 2.90 | 95 | 1007.8 |
| 20260507022036 | 6 | 0 | 0.0 | 0.0 | 0.08 | 3.02 | 2.90 | 95 | 1007.7 |
| 20260507021551 | 6 | 0 | 0.0 | 0.0 | 0.10 | 3.02 | 2.90 | 95 | 1007.8 |
| 20260507021036 | 6 | 0 | 0.0 | 0.0 | 0.08 | 2.97 | 2.87 | 95 | 1007.8 |
| 20260507020536 | 6 | 0 | 0.0 | 0.0 | 0.08 | 2.97 | 2.87 | 95 | 1007.7 |
| 20260507020052 | 6 | 0 | 0.0 | 0.0 | 0.10 | 2.97 | 2.87 | 95 | 1007.6 |
| 20260507015536 | 6 | 0 | 0.0 | 0.0 | 0.10 | 2.95 | 2.84 | 95 | 1007.6 |
| 20260507015036 | 6 | 0 | 0.0 | 0.0 | 0.08 | 2.95 | 2.82 | 95 | 1007.7 |
| 20260507014608 | 6 | 0 | 0.0 | 0.0 | 0.08 | 2.95 | 2.82 | 95 | 1007.7 |
| 20260507014037 | 6 | 0 | 0.0 | 3.2 | 0.08 | 2.95 | 2.82 | 95 | 1007.6 |
| 20260507013537 | 6 | 0 | 0.0 | 3.2 | 0.08 | 2.95 | 2.82 | 95 | 1007.6 |
| 20260507013052 | 6 | 0 | 0.0 | 1.6 | 0.10 | 2.95 | 2.82 | 95 | 1007.5 |
| 20260507012537 | 6 | 0 | 0.0 | 1.6 | 0.10 | 2.95 | 2.82 | 95 | 1007.4 |
| 20260507012036 | 6 | 0 | 0.0 | 1.6 | 0.08 | 2.92 | 2.79 | 95 | 1007.3 |
| 20260507011546 | 6 | 0 | 0.0 | 3.2 | 0.08 | 2.92 | 2.79 | 95 | 1007.2 |
| 20260507011036 | 6 | 0 | 0.0 | 3.2 | 0.08 | 2.92 | 2.79 | 95 | 1007.2 |
| 20260507010536 | 6 | 306 | 0.0 | 3.2 | 0.10 | 2.92 | 2.79 | 95 | 1007.3 |
| 20260507010050 | 6 | 0 | 0.0 | 3.2 | 0.08 | 2.90 | 2.77 | 95 | 1007.4 |
| 20260507005536 | 6 | 0 | 0.0 | 3.2 | 0.05 | 2.87 | 2.74 | 95 | 1007.4 |
| 20260507005035 | 6 | 0 | 0.0 | 1.6 | 0.05 | 2.87 | 2.74 | 95 | 1007.1 |
| 20260507004547 | 6 | 0 | 0.0 | 0.0 | 0.05 | 2.87 | 2.74 | 95 | 1007.1 |
| 20260507004037 | 6 | 0 | 0.0 | 1.6 | 0.05 | 2.87 | 2.74 | 95 | 1007.2 |
| 20260507003538 | 6 | 0 | 0.0 | 1.6 | 0.05 | 2.87 | 2.74 | 94 | 1007.0 |
| 20260507003051 | 6 | 0 | 0.0 | 1.6 | 0.03 | 2.84 | 2.72 | 94 | 1006.7 |
| 20260507002536 | 6 | 0 | 0.0 | 4.8 | 0.03 | 2.84 | 2.72 | 94 | 1006.7 |
| 20260507002039 | 6 | 0 | 0.0 | 4.8 | 0.03 | 2.84 | 2.72 | 94 | 1006.6 |
| 20260507001552 | 6 | 0 | 0.0 | 3.2 | 0.03 | 2.84 | 2.72 | 94 | 1006.4 |
| 20260507001035 | 6 | 0 | 0.0 | 3.2 | 0.00 | 2.82 | 2.67 | 94 | 1006.5 |
| 20260507000536 | 6 | 0 | 0.0 | 11.3 | 0.00 | 2.82 | 2.67 | 94 | 1006.5 |
| 20260507000048 | 6 | 325 | 0.0 | 11.3 | 0.00 | 2.82 | 2.67 | 94 | 1006.4 |
| 20260506235536 | 6 | 0 | 0.0 | 4.8 | 0.00 | 2.82 | 2.67 | 94 | 1006.1 |
| 20260506235038 | 6 | 308 | 1.6 | 8.0 | 0.00 | 2.82 | 2.67 | 94 | 1006.3 |
| 20260506234545 | 6 | 0 | 1.6 | 8.0 | 0.00 | 2.82 | 2.67 | 94 | 1006.2 |
| 20260506234038 | 6 | 304 | 1.6 | 8.0 | 0.00 | 2.82 | 2.67 | 94 | 1006.1 |
| 20260506233538 | 6 | 338 | 3.2 | 8.0 | 0.00 | 2.82 | 2.67 | 94 | 1006.1 |
| 20260506233055 | 6 | 310 | 1.6 | 6.4 | 0.00 | 2.82 | 2.67 | 94 | 1006.2 |
| 20260506232537 | 6 | 343 | 0.0 | 4.8 | 0.00 | 2.82 | 2.67 | 94 | 1006.2 |
| 20260506232038 | 6 | 0 | 0.0 | 4.8 | 0.00 | 2.82 | 2.67 | 94 | 1006.3 |
| 20260506231550 | 6 | 0 | 0.0 | 8.0 | 0.00 | 2.82 | 2.67 | 94 | 1006.2 |
| 20260506231040 | 6 | 5 | 1.6 | 11.3 | 0.00 | 2.82 | 2.67 | 94 | 1006.1 |
| 20260506230539 | 6 | 338 | 1.6 | 11.3 | 0.00 | 2.82 | 2.67 | 94 | 1006.3 |
| 20260506230045 | 6 | 331 | 3.2 | 9.7 | 0.00 | 2.82 | 2.67 | 94 | 1006.0 |
| 20260506225538 | 6 | 284 | 3.2 | 8.0 | 0.00 | 2.82 | 2.67 | 94 | 1005.9 |
| 20260506225037 | 6 | 332 | 1.6 | 8.0 | 0.00 | 2.82 | 2.67 | 94 | 1005.8 |
| 20260506224544 | 6 | 310 | 1.6 | 9.7 | 0.00 | 2.82 | 2.67 | 94 | 1005.6 |
| 20260506224036 | 6 | 0 | 1.6 | 9.7 | 0.00 | 2.82 | 2.67 | 94 | 1005.8 |
| 20260506223536 | 6 | 0 | 1.6 | 12.9 | 0.03 | 2.82 | 2.67 | 94 | 1005.7 |
| 20260506223046 | 6 | 345 | 3.2 | 12.9 | 0.03 | 2.82 | 2.67 | 94 | 1005.7 |
| 20260506222536 | 6 | 298 | 3.2 | 12.9 | 0.03 | 2.82 | 2.67 | 94 | 1005.7 |
| 20260506222037 | 6 | 308 | 1.6 | 12.9 | 0.05 | 2.82 | 2.67 | 95 | 1005.6 |
| 20260506221548 | 6 | 300 | 3.2 | 12.9 | 0.08 | 2.82 | 2.67 | 95 | 1005.5 |
| 20260506221036 | 6 | 346 | 1.6 | 11.3 | 0.10 | 2.82 | 2.67 | 95 | 1005.5 |
| 20260506220536 | 6 | 313 | 3.2 | 8.0 | 0.13 | 2.82 | 2.67 | 95 | 1005.5 |
| 20260506220051 | 6 | 329 | 1.6 | 9.7 | 0.15 | 2.82 | 2.67 | 95 | 1005.6 |
| 20260506215538 | 6 | 0 | 3.2 | 9.7 | 0.18 | 2.82 | 2.67 | 95 | 1005.5 |
| 20260506215036 | 6 | 5 | 3.2 | 14.5 | 0.20 | 2.82 | 2.67 | 95 | 1005.5 |
| 20260506214547 | 6 | 284 | 3.2 | 14.5 | 0.23 | 2.82 | 2.67 | 95 | 1005.5 |
| 20260506214036 | 6 | 352 | 3.2 | 14.5 | 0.25 | 2.82 | 2.67 | 95 | 1005.5 |
| 20260506213535 | 6 | 309 | 1.6 | 6.4 | 0.23 | 2.79 | 2.64 | 95 | 1005.5 |
| 20260506213044 | 6 | 308 | 1.6 | 6.4 | 0.23 | 2.79 | 2.64 | 95 | 1005.5 |
| 20260506212536 | 6 | 346 | 0.0 | 6.4 | 0.20 | 2.77 | 2.64 | 95 | 1005.4 |
| 20260506212035 | 6 | 294 | 1.6 | 4.8 | 0.23 | 2.77 | 2.64 | 95 | 1005.6 |
| 20260506211547 | 6 | 338 | 1.6 | 6.4 | 0.20 | 2.74 | 2.62 | 95 | 1005.6 |
| 20260506211036 | 6 | 0 | 0.0 | 6.4 | 0.18 | 2.72 | 2.59 | 95 | 1005.7 |
| 20260506210540 | 6 | 327 | 1.6 | 9.7 | 0.15 | 2.67 | 2.57 | 95 | 1005.6 |
| 20260506210050 | 6 | 0 | 1.6 | 9.7 | 0.13 | 2.64 | 2.54 | 95 | 1005.5 |
| 20260506205535 | 6 | 331 | 1.6 | 9.7 | 0.10 | 2.92 | 2.51 | 95 | 1005.5 |
| 20260506205038 | 7 | 0 | 1.6 | 8.0 | 0.10 | 2.90 | 2.49 | 95 | 1005.4 |
| 20260506204545 | 7 | 0 | 1.6 | 8.0 | 0.08 | 2.87 | 2.46 | 95 | 1005.5 |
| 20260506204035 | 7 | 0 | 0.0 | 6.4 | 0.05 | 2.84 | 2.44 | 95 | 1005.2 |
| 20260506203536 | 7 | 0 | 1.6 | 6.4 | 0.05 | 2.84 | 2.44 | 95 | 1005.2 |
| 20260506203051 | 7 | 285 | 1.6 | 6.4 | 0.05 | 2.84 | 2.44 | 95 | 1005.1 |
| 20260506202536 | 7 | 0 | 0.0 | 6.4 | 0.05 | 2.84 | 2.44 | 95 | 1005.1 |
| 20260506202035 | 7 | 320 | 1.6 | 6.4 | 0.03 | 2.82 | 2.41 | 95 | 1005.3 |
| 20260506201604 | 7 | 304 | 1.6 | 6.4 | 0.03 | 2.82 | 2.41 | 95 | 1005.2 |
| 20260506201039 | 7 | 0 | 1.6 | 6.4 | 0.03 | 2.82 | 2.41 | 95 | 1005.2 |
| 20260506200536 | 7 | 0 | 1.6 | 4.8 | 0.03 | 2.82 | 2.41 | 95 | 1005.2 |
| 20260506200044 | 7 | 292 | 0.0 | 6.4 | 0.05 | 2.82 | 2.41 | 95 | 1005.2 |
| 20260506195536 | 7 | 0 | 1.6 | 6.4 | 0.05 | 2.82 | 2.41 | 95 | 1005.3 |
| 20260506195039 | 7 | 308 | 0.0 | 4.8 | 0.03 | 2.79 | 2.39 | 95 | 1005.2 |
| 20260506194553 | 7 | 286 | 0.0 | 6.4 | 0.03 | 2.79 | 2.39 | 95 | 1005.2 |
| 20260506194036 | 7 | 0 | 0.0 | 8.0 | 0.05 | 2.79 | 2.39 | 95 | 1005.2 |
| 20260506193535 | 7 | 0 | 1.6 | 8.0 | 0.08 | 2.79 | 2.39 | 95 | 1005.2 |
| 20260506193051 | 7 | 21 | 1.6 | 8.0 | 0.10 | 2.79 | 2.39 | 95 | 1005.3 |
| 20260506192536 | 7 | 327 | 1.6 | 8.0 | 0.10 | 2.79 | 2.39 | 95 | 1005.4 |
| 20260506192038 | 7 | 335 | 0.0 | 4.8 | 0.13 | 2.79 | 2.39 | 95 | 1005.3 |
| 20260506191543 | 7 | 309 | 0.0 | 6.4 | 0.13 | 2.79 | 2.39 | 95 | 1005.2 |
| 20260506191037 | 7 | 340 | 1.6 | 6.4 | 0.15 | 2.79 | 2.39 | 95 | 1005.3 |
| 20260506190535 | 7 | 9 | 0.0 | 6.4 | 0.15 | 2.79 | 2.39 | 95 | 1005.4 |
| 20260506190045 | 7 | 273 | 0.0 | 6.4 | 0.15 | 2.77 | 2.36 | 95 | 1005.6 |
| 20260506185536 | 7 | 336 | 0.0 | 4.8 | 0.20 | 2.77 | 2.36 | 95 | 1005.6 |
| 20260506185036 | 6 | 0 | 1.6 | 4.8 | 0.25 | 2.77 | 2.36 | 95 | 1005.6 |
| 20260506184550 | 6 | 0 | 1.6 | 4.8 | 0.30 | 2.77 | 2.36 | 95 | 1005.8 |
| 20260506184036 | 7 | 55 | 1.6 | 8.0 | 0.30 | 2.74 | 2.34 | 95 | 1005.6 |
| 20260506183539 | 7 | 0 | 1.6 | 8.0 | 0.30 | 2.72 | 2.31 | 95 | 1005.5 |
| 20260506183047 | 7 | 274 | 1.6 | 8.0 | 0.30 | 2.67 | 2.29 | 95 | 1005.6 |
| 20260506182535 | 7 | 0 | 0.0 | 4.8 | 0.33 | 2.67 | 2.29 | 95 | 1005.7 |
| 20260506182035 | 7 | 0 | 0.0 | 4.8 | 0.33 | 2.64 | 2.26 | 95 | 1005.7 |
| 20260506181545 | 7 | 0 | 0.0 | 9.7 | 0.33 | 2.64 | 2.26 | 95 | 1005.7 |
| 20260506181036 | 7 | 0 | 0.0 | 9.7 | 0.33 | 2.64 | 2.24 | 95 | 1005.9 |
| 20260506180537 | 7 | 0 | 0.0 | 3.2 | 0.38 | 2.64 | 2.24 | 95 | 1006.0 |
| 20260506180048 | 7 | 153 | 0.0 | 6.4 | 0.43 | 2.62 | 2.21 | 95 | 1006.1 |
| 20260506175536 | 7 | 0 | 0.0 | 6.4 | 0.46 | 2.57 | 2.16 | 95 | 1006.1 |
| 20260506175036 | 7 | 42 | 0.0 | 8.0 | 0.43 | 2.51 | 2.11 | 95 | 1006.1 |
| 20260506174545 | 7 | 0 | 1.6 | 9.7 | 0.43 | 2.46 | 2.06 | 95 | 1006.2 |
| 20260506174036 | 7 | 294 | 0.0 | 9.7 | 0.43 | 2.44 | 2.03 | 95 | 1006.3 |
| 20260506173538 | 8 | 319 | 1.6 | 9.7 | 0.41 | 2.41 | 2.01 | 95 | 1006.3 |
| 20260506173100 | 8 | 326 | 0.0 | 6.4 | 0.41 | 2.39 | 1.98 | 96 | 1006.3 |
| 20260506172537 | 8 | 5 | 0.0 | 6.4 | 0.41 | 2.36 | 1.96 | 96 | 1006.1 |
| 20260506172036 | 8 | 61 | 0.0 | 4.8 | 0.41 | 2.34 | 1.93 | 96 | 1006.0 |
| 20260506171553 | 8 | 352 | 0.0 | 4.8 | 0.41 | 2.34 | 1.93 | 96 | 1006.0 |
| 20260506171036 | 8 | 0 | 0.0 | 8.0 | 0.38 | 2.29 | 1.88 | 96 | 1006.1 |
| 20260506170537 | 8 | 0 | 1.6 | 8.0 | 0.38 | 2.26 | 1.85 | 96 | 1006.1 |
| 20260506170045 | 8 | 0 | 3.2 | 8.0 | 0.30 | 2.18 | 1.78 | 96 | 1006.0 |
| 20260506165540 | 8 | 309 | 0.0 | 3.2 | 0.25 | 2.11 | 1.70 | 96 | 1005.8 |
| 20260506165037 | 8 | 0 | 0.0 | 3.2 | 0.23 | 2.06 | 1.65 | 95 | 1005.7 |
| 20260506164547 | 8 | 0 | 0.0 | 3.2 | 0.20 | 2.03 | 1.63 | 96 | 1005.6 |
| 20260506164038 | 8 | 53 | 0.0 | 1.6 | 0.20 | 2.01 | 1.60 | 96 | 1005.7 |
| 20260506163535 | 8 | 0 | 0.0 | 3.2 | 0.20 | 2.01 | 1.60 | 96 | 1005.9 |
| 20260506163100 | 8 | 0 | 0.0 | 3.2 | 0.20 | 1.98 | 1.57 | 95 | 1005.9 |
| 20260506162535 | 8 | 0 | 0.0 | 1.6 | 0.20 | 1.96 | 1.55 | 96 | 1006.0 |
| 20260506162039 | 8 | 0 | 0.0 | 1.6 | 0.18 | 1.93 | 1.52 | 96 | 1006.0 |
| 20260506161546 | 8 | 0 | 0.0 | 3.2 | 0.18 | 1.91 | 1.47 | 96 | 1006.1 |